This is the latest recevied weather packets stored in our database for station/object KI4HRG. If no packets are shown the sender has not sent any weather packets the latest 10 day(s).
| Time | Temp. | Humidity | Pressure | Rain* | Wind** | Luminosity | Snow |
|---|---|---|---|---|---|---|---|
| 1777905714 | 20.56° C | 56% | 1017.6 hPa | 0 mm | - | 680 W/m² | - |
| 1777905411 | 20.56° C | 57% | 1017.7 hPa | 0 mm | - | 656 W/m² | - |
| 1777905109 | 20° C | 59% | 1017.6 hPa | 0 mm | - | 634 W/m² | - |
| 1777904806 | 18.89° C | 60% | 1017.6 hPa | 0 mm | - | 627 W/m² | - |
| 1777904503 | 19.44° C | 60% | 1017.7 hPa | 0 mm | - | 598 W/m² | - |
| 1777904199 | 18.33° C | 62% | 1017.7 hPa | 0 mm | - | 577 W/m² | - |
| 1777903896 | 18.33° C | 64% | 1017.8 hPa | 0 mm | - | 576 W/m² | - |
| 1777903593 | 17.78° C | 64% | 1018 hPa | 0 mm | - | 547 W/m² | - |
| 1777903289 | 17.78° C | 64% | 1017.9 hPa | 0 mm | - | 525 W/m² | - |
| 1777902986 | 17.22° C | 66% | 1018 hPa | 0 mm | - | 518 W/m² | - |
| 1777902682 | 17.22° C | 65% | 1018 hPa | 0 mm | - | 501 W/m² | - |
| 1777902380 | 17.22° C | 65% | 1017.9 hPa | 0 mm | - | 411 W/m² | - |
| 1777902076 | 16.67° C | 68% | 1017.8 hPa | 0 mm | - | 369 W/m² | - |
| 1777901775 | 16.11° C | 69% | 1018 hPa | 0 mm | - | 386 W/m² | - |
| 1777901471 | 15.56° C | 73% | 1018 hPa | 0 mm | - | 329 W/m² | - |
| 1777901170 | 15.56° C | 71% | 1018 hPa | 0 mm | - | 277 W/m² | - |
| 1777900867 | 15.56° C | 71% | 1017.9 hPa | 0 mm | - | 267 W/m² | - |
| 1777900564 | 15° C | 73% | 1017.9 hPa | 0 mm | - | 202 W/m² | - |
| 1777900261 | 15.56° C | 71% | 1018.1 hPa | 0 mm | - | 248 W/m² | - |
| 1777899957 | 15.56° C | 72% | 1018 hPa | 0 mm | - | 257 W/m² | - |
| 1777899654 | 15° C | 75% | 1018 hPa | 0 mm | - | 241 W/m² | - |
| 1777899352 | 14.44° C | 76% | 1018.1 hPa | 0 mm | - | 214 W/m² | - |
| 1777899049 | 14.44° C | 78% | 1018.1 hPa | 0 mm | - | 183 W/m² | - |
| 1777898746 | 14.44° C | 76% | 1018.1 hPa | 0 mm | - | 114 W/m² | - |
| 1777898444 | 13.89° C | 81% | 1018 hPa | 0 mm | - | 95 W/m² | - |
* Rain latest hour (hover to see other rain measurements)
** Current wind speed in m/s (hover to see current wind gust speed)